Deep River, CT

1:47 PM EST on February 07, 2016 (GMT -0500)
Chester

Weather History for KSNC - September, 2012

Change the Weather History Date:

Thursday, September 13, 2012

  Actual Average (KHVN) Record (KHVN)
Temperature  
Mean Temperature 67 °F -  
Max Temperature 77 °F 73 °F - (-1)
Min Temperature 57 °F 57 °F - (-1)
Cooling Degree Days 2    
Growing Degree Days 17 (Base 50)    
Moisture  
Dew Point 60 °F    
Average Humidity 79    
Maximum Humidity 100    
Minimum Humidity 47    
Precipitation  
Precipitation 0.00 in - - ()
Sea Level Pressure  
Sea Level Pressure 30.35 in    
Wind  
Wind Speed 4 mph (SW)    
Max Wind Speed 9 mph    
Max Gust Speed -    
Visibility 10 miles    
Events      
Averages and records for this station are not official NWS values.
T = Trace of Precipitation, MM = Missing Value Source: NWS Daily Summary

Daily Weather History Graph

Daily Weather History Graph

Search for Another Location

Airport or City:

Trip Planner

Search our weather history database for the weather conditions in past years. The results will help you decide how hot, cold, wet, or windy it might be!

Date:

Astronomy

Sep. 13, 2012 Rise Set
Actual Time 6:28 AM EDT 7:01 PM EDT
Civil Twilight 6:01 AM EDT 7:29 PM EDT
Nautical Twilight 5:28 AM EDT 8:02 PM EDT
Astronomical Twilight 4:54 AM EDT 8:36 PM EDT
Moon 3:44 AM EDT (9/13) 5:24 PM EDT (9/13)
Length of Visible Light 13h 28m
Length of Day
12h 33m
Waning Crescent, 7% of the Moon is Illuminated
Sep 13
Waning Crescent
Sep 15
New
Sep 22
First Quarter
Sep 29
Full
Oct 8
Last Quarter

Hourly Weather History & Observations

Time (EDT) Temp. Dew Point Humidity Pressure Visibility Wind Dir Wind Speed Gust Speed Precip Events Conditions
12:15 AM 64.4 °F 62.6 °F 94% 30.37 in 10.0 mi SSW 3.5 mph - N/A   Clear
12:35 AM 64.4 °F 62.6 °F 94% 30.37 in 10.0 mi SW 3.5 mph - N/A   Clear
12:55 AM 64.4 °F 62.6 °F 94% 30.37 in 10.0 mi SW 3.5 mph - N/A   Clear
1:15 AM 64.4 °F 60.8 °F 88% 30.37 in 10.0 mi SW 4.6 mph - N/A   Clear
1:35 AM 64.4 °F 60.8 °F 88% 30.37 in 10.0 mi SW 4.6 mph - N/A   Clear
1:55 AM 62.6 °F 60.8 °F 94% 30.37 in 10.0 mi Calm Calm - N/A   Clear
2:15 AM 62.6 °F 60.8 °F 94% 30.36 in 10.0 mi SSW 3.5 mph - N/A   Clear
2:35 AM 60.8 °F 60.8 °F 100% 30.37 in 10.0 mi Calm Calm - N/A   Clear
2:55 AM 62.6 °F 60.8 °F 94% 30.36 in 10.0 mi Calm Calm - N/A   Clear
3:15 AM 60.8 °F 59.0 °F 94% 30.36 in 10.0 mi Calm Calm - N/A   Clear
3:35 AM 60.8 °F 59.0 °F 94% 30.36 in 10.0 mi Calm Calm - N/A   Clear
3:55 AM 60.8 °F 59.0 °F 94% 30.36 in 10.0 mi Calm Calm - N/A   Clear
4:15 AM 59.0 °F 57.2 °F 94% 30.36 in 10.0 mi Calm Calm - N/A   Clear
4:35 AM 57.2 °F 57.2 °F 100% 30.37 in 10.0 mi Calm Calm - N/A   Clear
4:55 AM 59.0 °F 57.2 °F 94% 30.37 in 10.0 mi Calm Calm - N/A   Clear
5:15 AM 57.2 °F 57.2 °F 100% 30.37 in 10.0 mi Calm Calm - N/A   Clear
5:35 AM 57.2 °F 57.2 °F 100% 30.37 in 10.0 mi Calm Calm - N/A   Clear
5:55 AM 57.2 °F 57.2 °F 100% 30.38 in 10.0 mi Calm Calm - N/A   Clear
6:15 AM 59.0 °F 57.2 °F 94% 30.38 in 10.0 mi WSW 3.5 mph - N/A   Clear
6:35 AM 60.8 °F 59.0 °F 94% 30.38 in 10.0 mi Calm Calm - N/A   Clear
6:55 AM 62.6 °F 60.8 °F 94% 30.38 in 10.0 mi WSW 3.5 mph - N/A   Clear
7:15 AM 64.4 °F 59.0 °F 83% 30.38 in 10.0 mi WSW 3.5 mph - N/A   Clear
7:35 AM 64.4 °F 59.0 °F 83% 30.38 in 10.0 mi Calm Calm - N/A   Clear
7:55 AM 66.2 °F 60.8 °F 83% 30.38 in 10.0 mi Calm Calm - N/A   Clear
8:15 AM 68.0 °F 60.8 °F 78% 30.38 in 10.0 mi WSW 3.5 mph - N/A   Clear
8:55 AM 69.8 °F 60.8 °F 73% 30.39 in 10.0 mi SW 5.8 mph - N/A   Clear
9:15 AM 69.8 °F 60.8 °F 73% 30.39 in 10.0 mi SSW 8.1 mph - N/A   Clear
9:35 AM 71.6 °F 59.0 °F 64% 30.39 in 10.0 mi SSW 8.1 mph - N/A   Clear
9:55 AM 71.6 °F 60.8 °F 69% 30.39 in 10.0 mi WSW 5.8 mph - N/A   Clear
10:35 AM 73.4 °F 57.2 °F 57% 30.38 in 10.0 mi WSW 6.9 mph - N/A   Clear
10:55 AM 73.4 °F 57.2 °F 57% 30.38 in 10.0 mi SW 5.8 mph - N/A   Clear
11:15 AM 73.4 °F 57.2 °F 57% 30.38 in 10.0 mi WSW 5.8 mph - N/A   Clear
11:35 AM 75.2 °F 57.2 °F 53% 30.38 in 10.0 mi SSW 5.8 mph - N/A   Clear
11:55 AM 75.2 °F 55.4 °F 50% 30.38 in 10.0 mi SSW 6.9 mph - N/A   Clear
12:15 PM 75.2 °F 57.2 °F 53% 30.37 in 10.0 mi SW 3.5 mph - N/A   Clear
12:35 PM 75.2 °F 59.0 °F 57% 30.37 in 10.0 mi SW 8.1 mph - N/A   Clear
12:55 PM 75.2 °F 57.2 °F 53% 30.36 in 10.0 mi SW 8.1 mph - N/A   Clear
1:15 PM 75.2 °F 57.2 °F 53% 30.35 in 10.0 mi SSW 9.2 mph - N/A   Clear
1:35 PM 75.2 °F 55.4 °F 50% 30.35 in 10.0 mi SW 6.9 mph - N/A   Clear
1:55 PM 77.0 °F 55.4 °F 47% 30.34 in 10.0 mi South 8.1 mph - N/A   Clear
2:15 PM 75.2 °F 55.4 °F 50% 30.34 in 10.0 mi SSW 5.8 mph - N/A   Clear
2:35 PM 75.2 °F 55.4 °F 50% 30.33 in 10.0 mi SW 3.5 mph - N/A   Clear
2:55 PM 75.2 °F 55.4 °F 50% 30.33 in 10.0 mi SSW 6.9 mph - N/A   Clear
3:35 PM 75.2 °F 59.0 °F 57% 30.32 in 10.0 mi South 9.2 mph - N/A   Clear
3:55 PM 75.2 °F 60.8 °F 61% 30.32 in 10.0 mi SW 4.6 mph - N/A   Clear
4:35 PM 75.2 °F 60.8 °F 61% 30.31 in 10.0 mi South 6.9 mph - N/A   Clear
4:55 PM 73.4 °F 60.8 °F 65% 30.31 in 10.0 mi SSW 8.1 mph - N/A   Clear
5:15 PM 73.4 °F 62.6 °F 69% 30.31 in 10.0 mi SSW 6.9 mph - N/A   Clear
5:35 PM 71.6 °F 62.6 °F 73% 30.31 in 10.0 mi SSW 4.6 mph - N/A   Clear
5:55 PM 71.6 °F 62.6 °F 73% 30.30 in 10.0 mi SSW 6.9 mph - N/A   Clear
6:15 PM 69.8 °F 62.6 °F 78% 30.30 in 10.0 mi South 5.8 mph - N/A   Clear
6:35 PM 69.8 °F 62.6 °F 78% 30.30 in 10.0 mi SSW 5.8 mph - N/A   Clear
6:55 PM 68.0 °F 62.6 °F 83% 30.30 in 10.0 mi SSW 4.6 mph - N/A   Clear
7:15 PM 66.2 °F 62.6 °F 88% 30.31 in 10.0 mi SSW 4.6 mph - N/A   Clear
7:35 PM 66.2 °F 62.6 °F 88% 30.31 in 10.0 mi South 5.8 mph - N/A   Clear
7:55 PM 66.2 °F 62.6 °F 88% 30.31 in 10.0 mi South 4.6 mph - N/A   Clear
8:35 PM 64.4 °F 62.6 °F 94% 30.31 in 10.0 mi SSW 4.6 mph - N/A   Clear
8:55 PM 64.4 °F 62.6 °F 94% 30.31 in 10.0 mi SSW 4.6 mph - N/A   Clear
9:35 PM 64.4 °F 62.6 °F 94% 30.30 in 10.0 mi SW 3.5 mph - N/A   Clear
9:55 PM 64.4 °F 62.6 °F 94% 30.30 in 10.0 mi SW 4.6 mph - N/A   Clear
10:15 PM 64.4 °F 62.6 °F 94% 30.30 in 10.0 mi SW 3.5 mph - N/A   Clear
10:35 PM 64.4 °F 60.8 °F 88% 30.30 in 10.0 mi SSW 4.6 mph - N/A   Clear
10:55 PM 64.4 °F 60.8 °F 88% 30.30 in 10.0 mi SSW 4.6 mph - N/A   Clear
11:15 PM 64.4 °F 60.8 °F 88% 30.31 in 10.0 mi SSW 3.5 mph - N/A   Clear
11:35 PM 64.4 °F 60.8 °F 88% 30.31 in 10.0 mi Calm Calm - N/A   Clear